EA4TN Weather Reports


Display with metric or nautical units.
time (UTC)temp
F
wind
direction
speed
MPH
gust
MPH
rain 1hr
in
rain 24hr
in
rain mn
in
humidity
%
barometer
mb
20260831040556 67 78 2.0 3.0 0.00 0.00 0.00 53 1019.4
20260831035516 68 83 3.0 4.0 0.00 0.00 0.00 53 1019.3
20260831034516 68 60 3.0 6.0 0.00 0.00 0.00 52 1019.3
20260831033516 69 78 4.0 8.0 0.00 0.00 0.00 51 1019.2
20260831032516 68 49 4.0 7.0 0.00 0.00 0.00 52 1019.1
20260831031516 68 59 3.0 6.0 0.00 0.00 0.00 52 1019.1
20260831030515 69 51 2.0 4.0 0.00 0.00 0.00 52 1019.2
20260831025636 69 56 1.0 4.0 0.00 0.00 0.00 51 1019.2
20260831024516 69 46 2.0 4.0 0.00 0.00 0.00 51 1019.2
20260831023516 70 79 2.0 5.0 0.00 0.00 0.00 50 1019.2
20260831022516 70 77 2.0 5.0 0.00 0.00 0.00 51 1019.1
20260831021516 70 47 3.0 6.0 0.00 0.00 0.00 50 1019.0
20260831020516 70 53 3.0 6.0 0.00 0.00 0.00 50 1019.0
20260831015516 71 51 4.0 8.0 0.00 0.00 0.00 49 1019.1
20260831014516 71 52 4.0 7.0 0.00 0.00 0.00 48 1019.0
20260831013516 72 50 5.0 7.0 0.00 0.00 0.00 48 1018.9
20260831012516 72 46 3.0 4.0 0.00 0.00 0.00 47 1019.0
20260831011556 73 46 3.0 5.0 0.00 0.00 0.00 47 1019.0
20260831010516 73 45 3.0 5.0 0.00 0.00 0.00 47 1018.9
20260831005516 73 0.0 1.0 0.00 0.00 0.00 47 1019.0
20260831004516 73 239 1.0 2.0 0.00 0.00 0.00 47 1018.9
20260831003556 72 239 1.0 2.0 0.00 0.00 0.00 48 1018.8
20260831002516 71 0.0 0.0 0.00 0.00 0.00 48 1018.7
20260831001516 71 0.0 0.0 0.00 0.00 0.00 49 1018.7
20260831000556 71 0.0 0.0 0.00 0.00 0.00 49 1018.8
20260830235515 72 0.0 0.0 0.00 0.00 0.00 48 1018.8
20260830234515 72 0.0 0.0 0.00 0.00 0.00 47 1018.7
20260830233516 72 0.0 0.0 0.00 0.00 0.00 47 1018.6
20260830232516 72 0.0 0.0 0.00 0.00 0.00 47 1018.6
20260830231555 73 0.0 0.0 0.00 0.00 0.00 46 1018.7
20260830230516 73 0.0 0.0 0.00 0.00 0.00 46 1018.5
20260830225515 74 0.0 0.0 0.00 0.00 0.00 46 1018.4
20260830224515 74 0.0 0.0 0.00 0.00 0.00 44 1018.4
20260830223515 75 0.0 0.0 0.00 0.00 0.00 43 1018.4
20260830222515 75 0.0 0.0 0.00 0.00 0.00 42 1018.3
20260830221555 76 0.0 0.0 0.00 0.00 0.00 41 1018.2
20260830220515 77 239 1.0 2.0 0.00 0.00 0.00 40 1018.1
20260830215515 77 239 2.0 3.0 0.00 0.00 0.00 39 1018.0
20260830214515 78 239 2.0 4.0 0.00 0.00 0.00 38 1018.0
20260830213515 78 225 2.0 4.0 0.00 0.00 0.00 37 1017.9
20260830212515 79 241 2.0 3.0 0.00 0.00 0.00 37 1017.9
20260830211555 79 263 0.0 2.0 0.00 0.00 0.00 37 1017.9
20260830210515 79 263 0.0 3.0 0.00 0.00 0.00 36 1017.7
20260830205555 80 271 2.0 5.0 0.00 0.00 0.00 35 1017.7
20260830204516 80 272 2.0 4.0 0.00 0.00 0.00 35 1017.6
20260830203556 80 255 1.0 5.0 0.00 0.00 0.00 35 1017.5
20260830202515 81 265 2.0 4.0 0.00 0.00 0.00 34 1017.4
20260830201555 81 263 2.0 5.0 0.00 0.00 0.00 33 1017.3
20260830200516 82 255 2.0 6.0 0.00 0.00 0.00 33 1017.1
20260830195556 82 268 2.0 5.0 0.00 0.00 0.00 32 1017.0
20260830194515 83 267 2.0 5.0 0.00 0.00 0.00 32 1016.9
20260830193516 83 260 2.0 5.0 0.00 0.00 0.00 31 1016.7
20260830192515 84 269 3.0 6.0 0.00 0.00 0.00 30 1016.6
20260830191515 84 268 3.0 6.0 0.00 0.00 0.00 29 1016.6
20260830190515 85 276 1.0 8.0 0.00 0.00 0.00 29 1016.4
20260830185516 85 270 3.0 8.0 0.00 0.00 0.00 29 1016.3
20260830184515 86 266 4.0 9.0 0.00 0.00 0.00 28 1016.3
20260830183515 87 264 4.0 9.0 0.00 0.00 0.00 27 1016.2
20260830182515 88 268 4.0 11.0 0.00 0.00 0.00 25 1016.2
20260830181556 88 261 4.0 13.0 0.00 0.00 0.00 25 1016.2
20260830180635 89 267 5.0 13.0 0.00 0.00 0.00 24 1016.2
20260830175556 89 264 5.0 13.0 0.00 0.00 0.00 24 1016.3
20260830174516 89 263 5.0 13.0 0.00 0.00 0.00 23 1016.3
20260830173516 89 264 5.0 12.0 0.00 0.00 0.00 24 1016.2
20260830172515 89 261 7.0 13.0 0.00 0.00 0.00 24 1016.3
20260830171516 90 270 9.0 14.0 0.00 0.00 0.00 23 1016.4
20260830170516 90 270 7.0 13.0 0.00 0.00 0.00 22 1016.5
20260830165515 90 261 7.0 14.0 0.00 0.00 0.00 22 1016.4
20260830164516 90 269 8.0 19.0 0.00 0.00 0.00 22 1016.5
20260830163516 90 258 7.0 15.0 0.00 0.00 0.00 22 1016.4
20260830162516 90 253 7.0 14.0 0.00 0.00 0.00 22 1016.4
20260830161556 91 268 6.0 12.0 0.00 0.00 0.00 22 1016.5
20260830160556 90 269 7.0 14.0 0.00 0.00 0.00 23 1016.7
20260830155515 90 257 7.0 13.0 0.00 0.00 0.00 23 1016.8
20260830154515 90 267 8.0 16.0 0.00 0.00 0.00 23 1016.8
20260830153515 90 261 8.0 18.0 0.00 0.00 0.00 24 1016.8
20260830152515 90 265 5.0 16.0 0.00 0.00 0.00 24 1016.9
20260830151516 90 265 7.0 13.0 0.00 0.00 0.00 24 1016.9
20260830150516 90 268 7.0 16.0 0.00 0.00 0.00 24 1017.1
20260830145516 90 247 5.0 15.0 0.00 0.00 0.00 24 1017.2
20260830144516 90 235 7.0 17.0 0.00 0.00 0.00 24 1017.3
20260830143516 89 274 6.0 11.0 0.00 0.00 0.00 25 1017.5
20260830142515 89 253 7.0 15.0 0.00 0.00 0.00 25 1017.6
20260830141516 89 254 6.0 14.0 0.00 0.00 0.00 26 1017.7
20260830140516 89 268 6.0 14.0 0.00 0.00 0.00 26 1017.8
20260830135516 89 264 5.0 13.0 0.00 0.00 0.00 26 1017.9
20260830134516 89 267 7.0 16.0 0.00 0.00 0.00 26 1018.0
20260830133516 88 245 5.0 12.0 0.00 0.00 0.00 27 1018.0
20260830132516 87 264 7.0 17.0 0.00 0.00 0.00 27 1018.1
20260830131556 88 248 5.0 18.0 0.00 0.00 0.00 27 1018.2
20260830130516 87 272 6.0 13.0 0.00 0.00 0.00 27 1018.4
20260830125516 86 271 4.0 12.0 0.00 0.00 0.00 28 1018.4
20260830124516 87 274 5.0 10.0 0.00 0.00 0.00 27 1018.6
20260830123516 86 268 5.0 10.0 0.00 0.00 0.00 28 1018.6
20260830122556 86 277 5.0 11.0 0.00 0.00 0.00 28 1018.8
20260830121516 85 272 4.0 11.0 0.00 0.00 0.00 29 1018.8
20260830120516 85 269 6.0 13.0 0.00 0.00 0.00 28 1018.9
20260830115556 86 280 5.0 13.0 0.00 0.00 0.00 28 1019.0
20260830114516 85 273 4.0 11.0 0.00 0.00 0.00 29 1019.0
20260830113516 85 261 6.0 11.0 0.00 0.00 0.00 29 1019.2
20260830111516 83 257 3.0 7.0 0.00 0.00 0.00 31 1019.2
20260830110516 83 211 4.0 8.0 0.00 0.00 0.00 31 1019.3
20260830105516 82 252 3.0 8.0 0.00 0.00 0.00 32 1019.5
20260830104516 82 221 3.0 7.0 0.00 0.00 0.00 33 1019.5
20260830103516 81 246 2.0 7.0 0.00 0.00 0.00 34 1019.7
20260830102516 80 161 1.0 5.0 0.00 0.00 0.00 34 1019.6
20260830101516 79 168 3.0 6.0 0.00 0.00 0.00 35 1019.7
20260830100516 78 284 1.0 4.0 0.00 0.00 0.00 35 1019.7
20260830095516 77 253 2.0 5.0 0.00 0.00 0.00 36 1019.6
20260830094556 76 96 1.0 4.0 0.00 0.00 0.00 36 1019.7
20260830093516 76 245 1.0 4.0 0.00 0.00 0.00 37 1019.8
20260830092516 75 186 2.0 6.0 0.00 0.00 0.00 37 1019.7
20260830091516 75 244 3.0 5.0 0.00 0.00 0.00 38 1019.7
20260830090516 75 237 1.0 4.0 0.00 0.00 0.00 38 1019.8
20260830085516 74 215 1.0 4.0 0.00 0.00 0.00 37 1019.7
20260830084516 72 255 1.0 3.0 0.00 0.00 0.00 38 1019.5
20260830083516 72 271 1.0 2.0 0.00 0.00 0.00 39 1019.7
20260830082516 72 276 1.0 3.0 0.00 0.00 0.00 37 1019.6
20260830081516 71 71 0.0 2.0 0.00 0.00 0.00 38 1019.7
20260830080516 69 71 1.0 2.0 0.00 0.00 0.00 40 1019.7
20260830075516 68 71 1.0 3.0 0.00 0.00 0.00 44 1019.5
20260830074516 67 71 2.0 4.0 0.00 0.00 0.00 44 1019.5
20260830073516 66 46 2.0 4.0 0.00 0.00 0.00 46 1019.5
20260830072516 65 45 2.0 5.0 0.00 0.00 0.00 48 1019.4
20260830071516 64 46 3.0 6.0 0.00 0.00 0.00 49 1019.3
20260830070516 63 49 4.0 6.0 0.00 0.00 0.00 50 1019.3
20260830065516 63 43 4.0 6.0 0.00 0.00 0.00 51 1019.2
20260830064516 63 41 4.0 6.0 0.00 0.00 0.00 52 1019.2
20260830063516 62 54 3.0 5.0 0.00 0.00 0.00 52 1019.3
20260830062516 62 52 2.0 4.0 0.00 0.00 0.00 53 1019.3
20260830061516 61 62 2.0 3.0 0.00 0.00 0.00 52 1019.1
20260830060516 61 61 1.0 3.0 0.00 0.00 0.00 52 1019.0
20260830055517 61 51 1.0 3.0 0.00 0.00 0.00 52 1018.9
20260830054516 61 51 1.0 3.0 0.00 0.00 0.00 52 1018.9
20260830053516 62 60 1.0 3.0 0.00 0.00 0.00 52 1018.9
20260830052636 62 63 2.0 3.0 0.00 0.00 0.00 51 1018.9
20260830051516 62 62 1.0 3.0 0.00 0.00 0.00 51 1018.9
20260830050516 62 48 2.0 4.0 0.00 0.00 0.00 51 1019.0
20260830045516 63 60 2.0 4.0 0.00 0.00 0.00 50 1019.0
20260830044516 63 60 1.0 3.0 0.00 0.00 0.00 50 1019.0
20260830043516 63 60 1.0 3.0 0.00 0.00 0.00 49 1019.0
20260830042516 63 0.0 0.0 0.00 0.00 0.00 49 1019.0
20260830041516 63 60 1.0 2.0 0.00 0.00 0.00 48 1019.0